CZ-6A DEB

Satellite information

Favourite Embed

Satellite Type and Status

DEBRISIN ORBIT

Key statistics

Satellite CZ-6A DEB at a glance.

Uptime

335

Days in orbit

Revolutions

≈ 14.5

Per day

Orbit

LEO

Low Earth Orbit

Inclination

88.7

Latest

Satellite identification and parameters

Extended collection of information and parameters for CZ-6A DEB.

Object identification

Identified? True

Debris? True

Object name: CZ-6A DEB

International designator: 2024-140WN

Object number (NORAD): 61373

Object ID (CCSDS): 61373

Country: PEOPLES REPUBLIC OF CHINA (PRC)

Current information (Y/N): Y

RCS size: SMALL

Orbital parameters

Period: 99.556 minutes

Inclination: 88.7497 deg

SMA: 7115.518 km

Apoapsis: 804.119 km

Periapsis: 670.646 km

RAAN: 302.0778 deg

Eccentricy: 0.009379

Argument of periapsis: 295.3259 deg

Mean anomaly: 63.8253 deg

Mean motion: 14.4641527 rev/day

Mean motion (dot): 0.00004365 rev/day2

B* drag term: 0.0011466 1/REarth

Two-line elements (TLE)

Creation date: July 6, 2025, 6:05 p.m.

Reference frame: TEME

Reference center: EARTH

Epoch: July 6, 2025, 2:34 p.m. UTC

TLE line 0: 0 CZ-6A DEB

TLE line 1: 1 61373U 24140WN 25187.60760618 .00004365 00000-0 11466-2 0 9996

TLE line 2: 2 61373 88.7497 302.0778 0093790 295.3259 63.8253 14.46415270 44048

Live tracking on map

Real-time ground track for satellite CZ-6A DEB.

In-orbit conjunctions

A list of the most updated potential collisions computed for object CZ-6A DEB.

Target Orbit TCA Probability of collision Miss distance Type
SL-8 R/B LEO 2025-05-07 14:15:00 0.0001134284 922.0 (m) ROCKET BODY
FENGYUN 1C DEB SSO 2025-03-03 01:46:57 0.0001140444 581.0 (m) DEBRIS
COSMOS 836 LEO 2025-01-21 10:11:31 0.0005886587 99.0 (m) PAYLOAD
CZ-6A DEB LEO 2024-11-02 18:37:21 0.00018953 374.0 (m) DEBRIS

Associated space launch

18 Low Earth Orbit communication satellites with Ku, Q and V band payloads for the G60 constellation operated by Shanghai Spacecom Satellite Technology (SSST) with funding backed by the Shanghai local government. Initial constellation will consist of 1296 satellites by 2027 with long term plans to expand it to 12000 satellites.

CZ-6A DEB was lifted into orbit during the mission ‘Long March 6A | G60 Polar Group 01’, on board a Long March 6A space rocket.

The launch took place on Aug. 6, 2024, 6:42 a.m. from Launch Complex 9A.

For more information about the launch, click the button.

Launch to space Long March 6A | G60 Polar Group 01
Long March 6A | G60 Polar Group 01

Agency: N/A

Status: Launch Successful

Launch date: Aug. 6, 2024, 6:42 a.m. UTC

Rocket: Long March 6A

Launch pad: Launch Complex 9A

Location: Taiyuan Satellite Launch Center, People's Republic of China

...

Latest news about this satellite

News about space launch
Brightness of first Chinese broadband constellation satellites alarms astronomers

The first satellites of a Chinese broadband constellation are significantly brighter than those of Western systems, posing a new challenge for astronomers.

News about space launch
Chinese rocket stage breaks up into cloud of more than 700 pieces of space debris

HELSINKI — A Chinese Long March 6A rocket’s upper stage has fragmented into a cloud of over 700 pieces of space debris, adding to concerns about long-term orbital safety. China […]

News about space launch
China's Thousand Sails Megaconstellation Kicks Off with Dangerous Debris Field

China's Thousand Sails Megaconstellation Kicks Off with Dangerous Debris Field


Newsletter sign-up

Weekly statistics, charts and insights to help you stay on top of the space industry.